Terminal Aerodrome Forecast
Issued by NWS Mt. Holly, NJ

Home | Current Version | Previous Version | Text Only | Print | Product List | Glossary On
Versions: 1 2 3 4 5 6 7 8 9 10 11 12 13 14 15 16 17 18 19 20 21 22 23 24 25 26 27 28 29 30 31 32 33 34 35 36 37 38 39 40 41 42 43 44 45 46 47 48 49 50
000
FTAK31 PANC 230606 AAA
TAFABE
TAF AMD
PABE 230606Z 2306/2406 14020G28KT 3SM -SN BLSN SCT005 OVC015
      TEMPO 2306/2310 14030G40KT 2SM -SN BLSN BKN005 OVC015
     FM231300 36025G35KT P6SM SCT015 BKN060
     FM240000 34018G26KT P6SM BKN060
     FM240300 32013KT P6SM BKN060=

USA.gov is the U.S. government's official web portal to all federal, state and local government web resources and services.